| time (UTC) | temp F | wind direction | speed knots | gust knots | rain 1hr in | rain 24hr in | rain mn in | humidity % | barometer mb |
| 20260505082721 | 54 | 236 | 11.3 | 14.8 | 0.00 | 0.00 | 0.00 | ||
| 20260505082219 | 54 | 242 | 7.8 | 14.8 | 0.00 | 0.00 | 0.00 | ||
| 20260505081217 | 54 | 242 | 11.3 | 16.5 | 0.00 | 0.00 | 0.00 | ||
| 20260505075213 | 54 | 232 | 10.4 | 16.5 | 0.00 | 0.00 | 0.00 | ||
| 20260505074211 | 54 | 249 | 12.2 | 16.5 | 0.00 | 0.00 | 0.00 | ||
| 20260505072708 | 54 | 240 | 9.6 | 12.2 | 0.00 | 0.00 | 0.00 | ||
| 20260505072207 | 54 | 247 | 7.8 | 12.2 | 0.00 | 0.00 | 0.00 | ||
| 20260505070203 | 54 | 243 | 7.8 | 13.0 | 0.00 | 0.00 | 0.00 | ||
| 20260505065702 | 54 | 250 | 8.7 | 13.0 | 0.00 | 0.00 | 0.00 | ||
| 20260505064700 | 54 | 247 | 7.8 | 12.2 | 0.00 | 0.00 | 0.00 | ||
| 20260505064159 | 54 | 245 | 8.7 | 10.4 | 0.00 | 0.00 | 0.00 | ||
| 20260505063658 | 54 | 224 | 7.8 | 9.6 | 0.00 | 0.00 | 0.00 | ||
| 20260505063158 | 54 | 228 | 6.1 | 10.4 | 0.00 | 0.00 | 0.00 | ||
| 20260505062656 | 54 | 250 | 7.8 | 10.4 | 0.00 | 0.00 | 0.00 | ||
| 20260505061654 | 55 | 259 | 7.0 | 12.2 | 0.00 | 0.00 | 0.00 | ||
| 20260505060653 | 55 | 242 | 7.8 | 12.2 | 0.00 | 0.00 | 0.00 | ||
| 20260505052645 | 55 | 212 | 6.1 | 11.3 | 0.00 | 0.00 | 0.00 | ||
| 20260505052145 | 55 | 232 | 7.0 | 11.3 | 0.00 | 0.00 | 0.00 | ||
| 20260505051642 | 55 | 232 | 7.0 | 11.3 | 0.00 | 0.00 | 0.00 | ||
| 20260505051141 | 55 | 240 | 8.7 | 13.0 | 0.00 | 0.00 | 0.00 | ||
| 20260505041630 | 56 | 245 | 7.0 | 8.7 | 0.00 | 0.00 | 0.00 | ||
| 20260505041130 | 56 | 235 | 4.3 | 8.7 | 0.00 | 0.00 | 0.00 | ||
| 20260505040127 | 56 | 239 | 6.1 | 11.3 | 0.00 | 0.00 | 0.00 | ||
| 20260505035125 | 56 | 242 | 7.0 | 10.4 | 0.00 | 0.00 | 0.00 | ||
| 20260505031618 | 56 | 210 | 7.8 | 10.4 | 0.00 | 0.00 | 0.00 | ||
| 20260505031118 | 56 | 225 | 7.0 | 10.4 | 0.00 | 0.00 | 0.00 | ||
| 20260505030616 | 56 | 225 | 7.0 | 10.4 | 0.00 | 0.00 | 0.00 | ||
| 20260505025616 | 56 | 239 | 6.1 | 13.0 | 0.00 | 0.00 | 0.00 | ||
| 20260505025114 | 56 | 229 | 7.8 | 13.0 | 0.00 | 0.00 | 0.00 | ||
| 20260505024612 | 56 | 226 | 9.6 | 12.2 | 0.00 | 0.00 | 0.00 | ||
| 20260505023109 | 57 | 221 | 7.8 | 11.3 | 0.00 | 0.00 | 0.00 | ||
| 20260505022608 | 57 | 232 | 7.8 | 13.0 | 0.00 | 0.00 | 0.00 | ||
| 20260505021606 | 57 | 233 | 8.7 | 13.0 | 0.00 | 0.00 | 0.00 | ||
| 20260505021105 | 57 | 224 | 7.8 | 12.2 | 0.00 | 0.00 | 0.00 | ||
| 20260505020604 | 57 | 240 | 7.8 | 10.4 | 0.00 | 0.00 | 0.00 | ||
| 20260505015602 | 57 | 245 | 7.0 | 15.6 | 0.00 | 0.00 | 0.00 | ||
| 20260505015101 | 57 | 233 | 9.6 | 15.6 | 0.00 | 0.00 | 0.00 | ||
| 20260505014059 | 57 | 257 | 12.2 | 17.4 | 0.00 | 0.00 | 0.00 | ||
| 20260505013559 | 57 | 249 | 13.0 | 17.4 | 0.00 | 0.00 | 0.00 | ||
| 20260505011053 | 60 | 249 | 11.3 | 17.4 | 0.00 | 0.00 | 0.00 | ||
| 20260505010052 | 60 | 239 | 13.0 | 15.6 | 0.00 | 0.00 | 0.00 | ||
| 20260505005050 | 60 | 231 | 11.3 | 16.5 | 0.00 | 0.00 | 0.00 | ||
| 20260505004048 | 60 | 246 | 11.3 | 16.5 | 0.00 | 0.00 | 0.00 | ||
| 20260505001542 | 60 | 240 | 13.9 | 20.0 | 0.00 | 0.00 | 0.00 | ||
| 20260505000540 | 60 | 238 | 13.9 | 20.0 | 0.00 | 0.00 | 0.00 | ||
| 20260504235037 | 60 | 246 | 13.9 | 20.0 | 0.00 | 0.00 | 0.00 | ||
| 20260504233034 | 60 | 250 | 14.8 | 21.7 | 0.00 | 0.00 | 0.00 | ||
| 20260504225025 | 61 | 253 | 13.0 | 19.1 | 0.00 | 0.00 | 0.00 | ||
| 20260504223522 | 61 | 236 | 13.9 | 19.1 | 0.00 | 0.00 | 0.00 | ||
| 20260504221518 | 61 | 247 | 12.2 | 18.2 | 0.00 | 0.00 | 0.00 | ||
| 20260504220016 | 61 | 252 | 12.2 | 17.4 | 0.00 | 0.00 | 0.00 | ||
| 20260504215013 | 61 | 247 | 13.0 | 19.1 | 0.00 | 0.00 | 0.00 | ||
| 20260504214512 | 61 | 238 | 11.3 | 19.1 | 0.00 | 0.00 | 0.00 | ||
| 20260504214012 | 61 | 243 | 12.2 | 18.2 | 0.00 | 0.00 | 0.00 | ||
| 20260504212508 | 60 | 254 | 12.2 | 17.4 | 0.00 | 0.00 | 0.00 | ||
| 20260504212007 | 60 | 243 | 12.2 | 17.4 | 0.00 | 0.00 | 0.00 | ||
| 20260504211507 | 60 | 246 | 13.0 | 17.4 | 0.00 | 0.00 | 0.00 | ||
| 20260504211004 | 60 | 242 | 13.0 | 17.4 | 0.00 | 0.00 | 0.00 | ||
| 20260504210504 | 60 | 242 | 11.3 | 16.5 | 0.00 | 0.00 | 0.00 | ||
| 20260504205504 | 60 | 245 | 12.2 | 14.8 | 0.00 | 0.00 | 0.00 | ||
| 20260504203459 | 60 | 243 | 11.3 | 14.8 | 0.00 | 0.00 | 0.00 | ||
| 20260504202958 | 60 | 252 | 11.3 | 16.5 | 0.00 | 0.00 | 0.00 | ||
| 20260504201453 | 59 | 242 | 12.2 | 16.5 | 0.00 | 0.00 | 0.00 | ||
| 20260504195953 | 59 | 242 | 11.3 | 16.5 | 0.00 | 0.00 | 0.00 | ||
| 20260504194950 | 58 | 245 | 9.6 | 16.5 | 0.00 | 0.00 | 0.00 | ||
| 20260504194448 | 58 | 246 | 13.0 | 15.6 | 0.00 | 0.00 | 0.00 | ||
| 20260504193948 | 58 | 257 | 13.0 | 16.5 | 0.00 | 0.00 | 0.00 | ||
| 20260504193446 | 58 | 238 | 10.4 | 16.5 | 0.00 | 0.00 | 0.00 | ||
| 20260504192944 | 58 | 239 | 12.2 | 16.5 | 0.00 | 0.00 | 0.00 | ||
| 20260504192444 | 58 | 242 | 13.0 | 20.0 | 0.00 | 0.00 | 0.00 | ||
| 20260504191942 | 58 | 250 | 10.4 | 20.0 | 0.00 | 0.00 | 0.00 | ||
| 20260504191441 | 58 | 226 | 7.8 | 20.0 | 0.00 | 0.00 | 0.00 | ||
| 20260504190439 | 57 | 243 | 16.5 | 20.0 | 0.00 | 0.00 | 0.00 | ||
| 20260504185437 | 57 | 236 | 11.3 | 16.5 | 0.00 | 0.00 | 0.00 | ||
| 20260504184938 | 57 | 247 | 10.4 | 16.5 | 0.00 | 0.00 | 0.00 | ||
| 20260504182932 | 57 | 235 | 15.6 | 18.2 | 0.00 | 0.00 | 0.00 | ||
| 20260504182432 | 57 | 243 | 12.2 | 18.2 | 0.00 | 0.00 | 0.00 | ||
| 20260504181430 | 56 | 239 | 10.4 | 17.4 | 0.00 | 0.00 | 0.00 | ||
| 20260504180928 | 56 | 235 | 11.3 | 17.4 | 0.00 | 0.00 | 0.00 | ||
| 20260504180427 | 56 | 233 | 9.6 | 16.5 | 0.00 | 0.00 | 0.00 | ||
| 20260504175427 | 56 | 240 | 11.3 | 18.2 | 0.00 | 0.00 | 0.00 | ||
| 20260504174925 | 56 | 190 | 13.0 | 18.2 | 0.00 | 0.00 | 0.00 | ||
| 20260504174423 | 56 | 238 | 13.0 | 18.2 | 0.00 | 0.00 | 0.00 | ||
| 20260504173923 | 56 | 236 | 13.0 | 18.2 | 0.00 | 0.00 | 0.00 | ||
| 20260504173421 | 56 | 238 | 9.6 | 18.2 | 0.00 | 0.00 | 0.00 | ||
| 20260504172920 | 56 | 243 | 8.7 | 18.2 | 0.00 | 0.00 | 0.00 | ||
| 20260504172420 | 56 | 242 | 11.3 | 17.4 | 0.00 | 0.00 | 0.00 | ||
| 20260504171418 | 56 | 200 | 13.0 | 19.1 | 0.00 | 0.00 | 0.00 | ||
| 20260504170415 | 56 | 239 | 8.7 | 16.5 | 0.00 | 0.00 | 0.00 | ||
| 20260504160403 | 55 | 242 | 8.7 | 14.8 | 0.00 | 0.00 | 0.00 | ||
| 20260504150853 | 55 | 231 | 9.6 | 13.0 | 0.00 | 0.00 | 0.00 | ||
| 20260504140841 | 54 | 229 | 3.5 | 13.9 | 0.00 | 0.00 | 0.00 | ||
| 20260504120316 | 53 | 228 | 7.8 | 16.5 | 0.00 | 0.01 | 0.00 | ||
| 20260504100252 | 53 | 218 | 11.3 | 17.4 | 0.00 | 0.01 | 0.00 |